Time,TemperatureF,DewpointF,PressureIn,WindDirection,WindDirectionDegrees,WindSpeedMPH,WindSpeedGustMPH,Humidity,HourlyPrecipIn,Conditions,Clouds,dailyrainin,SoftwareType,DateUTC
2013-04-11 00:02:00,53.0,17.0,-100.00,East,82,3.0,5.0,24,-99.99,,,-99.99,,2013-04-11 07:02:00,
2013-04-11 00:12:00,53.0,17.0,-100.00,East,100,3.0,5.0,24,-99.99,,,-99.99,,2013-04-11 07:12:00,
2013-04-11 00:21:00,53.0,18.0,-100.00,East,98,5.0,6.0,25,-99.99,,,-99.99,,2013-04-11 07:21:00,
2013-04-11 00:31:00,53.0,18.0,-100.00,ENE,73,4.0,5.0,25,-99.99,,,-99.99,,2013-04-11 07:31:00,
2013-04-11 00:42:00,54.0,18.0,-100.00,ENE,57,3.0,5.0,24,-99.99,,,-99.99,,2013-04-11 07:42:00,
2013-04-11 00:52:00,55.0,17.0,-100.00,NE,47,4.0,5.0,22,-99.99,,,-99.99,,2013-04-11 07:52:00,
2013-04-11 01:02:00,56.0,16.0,-100.00,NE,35,5.0,7.0,20,-99.99,,,-99.99,,2013-04-11 08:02:00,
2013-04-11 01:11:00,56.0,16.0,-100.00,NNE,33,6.0,8.0,20,-99.99,,,-99.99,,2013-04-11 08:11:00,
2013-04-11 01:22:00,56.0,14.0,-100.00,NE,47,4.0,6.0,19,-99.99,,,-99.99,,2013-04-11 08:22:00,
2013-04-11 01:32:00,56.0,14.0,-100.00,NE,47,4.0,6.0,19,-99.99,,,-99.99,,2013-04-11 08:32:00,
2013-04-11 01:42:00,55.0,14.0,-100.00,ENE,57,5.0,6.0,19,-99.99,,,-99.99,,2013-04-11 08:42:00,
2013-04-11 01:51:00,56.0,12.0,-100.00,NE,44,6.0,7.0,17,-99.99,,,-99.99,,2013-04-11 08:51:00,
2013-04-11 02:01:00,56.0,12.0,-100.00,NE,39,6.0,8.0,17,-99.99,,,-99.99,,2013-04-11 09:01:00,
2013-04-11 02:11:00,57.0,11.0,-100.00,NE,42,6.0,8.0,16,-99.99,,,-99.99,,2013-04-11 09:11:00,
2013-04-11 02:32:00,56.0,13.0,-100.00,NE,39,3.0,6.0,18,-99.99,,,-99.99,,2013-04-11 09:32:00,
2013-04-11 02:42:00,56.0,13.0,-100.00,NE,39,3.0,6.0,18,-99.99,,,-99.99,,2013-04-11 09:42:00,
2013-04-11 02:52:00,56.0,13.0,-100.00,NE,45,4.0,7.0,18,-99.99,,,-99.99,,2013-04-11 09:52:00,
2013-04-11 03:02:00,56.0,14.0,-100.00,NE,45,5.0,7.0,19,-99.99,,,-99.99,,2013-04-11 10:02:00,
2013-04-11 03:12:00,56.0,16.0,-100.00,NE,46,5.0,8.0,20,-99.99,,,-99.99,,2013-04-11 10:12:00,
2013-04-11 03:32:00,58.0,12.0,-100.00,NNE,33,6.0,10.0,16,-99.99,,,-99.99,,2013-04-11 10:32:00,
2013-04-11 03:41:00,58.0,12.0,-100.00,NNE,33,6.0,10.0,16,-99.99,,,-99.99,,2013-04-11 10:41:00,
2013-04-11 03:52:00,58.0,9.0,-100.00,NNE,24,7.0,9.0,14,-99.99,,,-99.99,,2013-04-11 10:52:00,
2013-04-11 04:02:00,58.0,9.0,-100.00,NNE,24,7.0,9.0,14,-99.99,,,-99.99,,2013-04-11 11:02:00,
2013-04-11 04:12:00,57.0,8.0,-100.00,NE,36,6.0,8.0,14,-99.99,,,-99.99,,2013-04-11 11:12:00,
2013-04-11 04:32:00,58.0,7.0,-100.00,NNE,14,5.0,8.0,13,-99.99,,,-99.99,,2013-04-11 11:32:00,
2013-04-11 04:42:00,58.0,9.0,-100.00,NNE,12,5.0,7.0,14,-99.99,,,-99.99,,2013-04-11 11:42:00,
2013-04-11 05:02:00,60.0,9.0,-100.00,NE,46,6.0,12.0,13,-99.99,,,-99.99,,2013-04-11 12:02:00,
2013-04-11 05:12:00,60.0,9.0,-100.00,NE,45,5.0,8.0,13,-99.99,,,-99.99,,2013-04-11 12:12:00,
2013-04-11 05:32:00,60.0,7.0,-100.00,NE,41,6.0,8.0,12,-99.99,,,-99.99,,2013-04-11 12:32:00,
2013-04-11 05:42:00,60.0,7.0,-100.00,NE,37,6.0,9.0,12,-99.99,,,-99.99,,2013-04-11 12:42:00,
2013-04-11 06:02:00,60.0,7.0,-100.00,NE,38,5.0,8.0,12,-99.99,,,-99.99,,2013-04-11 13:02:00,
2013-04-11 06:12:00,59.0,6.0,-100.00,ENE,60,4.0,6.0,12,-99.99,,,-99.99,,2013-04-11 13:12:00,
2013-04-11 06:22:00,56.0,7.0,-100.00,ESE,111,5.0,8.0,14,-99.99,,,-99.99,,2013-04-11 13:22:00,
2013-04-11 06:32:00,57.0,7.0,-100.00,ESE,113,7.0,9.0,13,-99.99,,,-99.99,,2013-04-11 13:32:00,
2013-04-11 06:42:00,56.0,7.0,-100.00,ESE,108,7.0,10.0,14,-99.99,,,-99.99,,2013-04-11 13:42:00,
2013-04-11 07:02:00,56.0,7.0,-100.00,ESE,108,7.0,8.0,14,-99.99,,,-99.99,,2013-04-11 14:02:00,
2013-04-11 07:12:00,55.0,8.0,-100.00,ESE,105,7.0,8.0,15,-99.99,,,-99.99,,2013-04-11 14:12:00,
2013-04-11 07:32:00,56.0,9.0,-100.00,ESE,108,6.0,8.0,15,-99.99,,,-99.99,,2013-04-11 14:32:00,
2013-04-11 07:42:00,57.0,11.0,-100.00,ESE,116,7.0,9.0,16,-99.99,,,-99.99,,2013-04-11 14:42:00,
2013-04-11 07:52:00,57.0,13.0,-100.00,ESE,116,6.0,8.0,17,-99.99,,,-99.99,,2013-04-11 14:52:00,
2013-04-11 08:02:00,57.0,15.0,-100.00,ESE,116,7.0,8.0,19,-99.99,,,-99.99,,2013-04-11 15:02:00,
2013-04-11 08:12:00,57.0,15.0,-100.00,ESE,116,7.0,8.0,19,-99.99,,,-99.99,,2013-04-11 15:12:00,
2013-04-11 09:52:00,64.0,21.0,-100.00,SSW,213,3.0,6.0,19,-99.99,,,-99.99,,2013-04-11 16:52:00,
2013-04-11 10:02:00,65.0,22.0,-100.00,SSW,194,3.0,5.0,19,-99.99,,,-99.99,,2013-04-11 17:02:00,
2013-04-11 10:12:00,64.0,20.0,-100.00,WSW,252,3.0,6.0,18,-99.99,,,-99.99,,2013-04-11 17:12:00,
2013-04-11 10:22:00,64.0,21.0,-100.00,SW,214,3.0,7.0,19,-99.99,,,-99.99,,2013-04-11 17:22:00,
2013-04-11 10:32:00,66.0,23.0,-100.00,SW,229,2.0,6.0,19,-99.99,,,-99.99,,2013-04-11 17:32:00,
2013-04-11 10:42:00,64.0,21.0,-100.00,West,264,4.0,8.0,19,-99.99,,,-99.99,,2013-04-11 17:42:00,
2013-04-11 10:52:00,64.0,21.0,-100.00,SW,228,5.0,8.0,19,-99.99,,,-99.99,,2013-04-11 17:52:00,
2013-04-11 11:02:00,65.0,23.0,-100.00,SW,224,4.0,8.0,20,-99.99,,,-99.99,,2013-04-11 18:02:00,
2013-04-11 11:12:00,64.0,23.0,-100.00,West,263,5.0,10.0,21,-99.99,,,-99.99,,2013-04-11 18:12:00,
2013-04-11 11:22:00,64.0,23.0,-100.00,West,264,5.0,8.0,21,-99.99,,,-99.99,,2013-04-11 18:22:00,
2013-04-11 11:32:00,64.0,23.0,-100.00,WSW,253,5.0,11.0,21,-99.99,,,-99.99,,2013-04-11 18:32:00,
2013-04-11 11:42:00,65.0,24.0,-100.00,WSW,252,5.0,11.0,21,-99.99,,,-99.99,,2013-04-11 18:42:00,
2013-04-11 11:52:00,64.0,25.0,-100.00,West,260,5.0,11.0,23,-99.99,,,-99.99,,2013-04-11 18:52:00,
2013-04-11 12:02:00,64.0,25.0,-100.00,West,260,5.0,11.0,23,-99.99,,,-99.99,,2013-04-11 19:02:00,
2013-04-11 12:13:00,65.0,26.0,-100.00,WSW,243,4.0,8.0,23,-99.99,,,-99.99,,2013-04-11 19:13:00,
2013-04-11 12:22:00,65.0,26.0,-100.00,West,266,6.0,11.0,23,-99.99,,,-99.99,,2013-04-11 19:22:00,
2013-04-11 12:32:00,65.0,26.0,-100.00,SW,221,4.0,9.0,23,-99.99,,,-99.99,,2013-04-11 19:32:00,
2013-04-11 12:42:00,66.0,27.0,-100.00,SW,214,4.0,8.0,23,-99.99,,,-99.99,,2013-04-11 19:42:00,
2013-04-11 12:52:00,66.0,27.0,-100.00,SW,232,5.0,11.0,23,-99.99,,,-99.99,,2013-04-11 19:52:00,
2013-04-11 13:02:00,65.0,27.0,-100.00,SW,226,6.0,12.0,24,-99.99,,,-99.99,,2013-04-11 20:02:00,
2013-04-11 13:12:00,65.0,27.0,-100.00,SW,219,6.0,11.0,24,-99.99,,,-99.99,,2013-04-11 20:12:00,
2013-04-11 13:21:00,66.0,28.0,-100.00,WSW,237,5.0,10.0,24,-99.99,,,-99.99,,2013-04-11 20:21:00,
2013-04-11 13:32:00,65.0,27.0,-100.00,WSW,248,5.0,12.0,24,-99.99,,,-99.99,,2013-04-11 20:32:00,
2013-04-11 13:42:00,65.0,27.0,-100.00,SSW,212,5.0,11.0,24,-99.99,,,-99.99,,2013-04-11 20:42:00,
2013-04-11 13:52:00,65.0,27.0,-100.00,SW,227,4.0,9.0,24,-99.99,,,-99.99,,2013-04-11 20:52:00,
2013-04-11 14:02:00,65.0,29.0,-100.00,WSW,248,5.0,11.0,26,-99.99,,,-99.99,,2013-04-11 21:02:00,
2013-04-11 14:11:00,66.0,30.0,-100.00,SW,232,5.0,10.0,26,-99.99,,,-99.99,,2013-04-11 21:11:00,
2013-04-11 14:22:00,66.0,31.0,-100.00,SSW,205,5.0,9.0,27,-99.99,,,-99.99,,2013-04-11 21:22:00,
2013-04-11 14:32:00,65.0,31.0,-100.00,SSW,196,4.0,8.0,28,-99.99,,,-99.99,,2013-04-11 21:32:00,
2013-04-11 14:42:00,66.0,32.0,-100.00,SSW,199,5.0,12.0,28,-99.99,,,-99.99,,2013-04-11 21:42:00,
2013-04-11 14:53:00,67.0,34.0,-100.00,SSW,203,6.0,12.0,29,-99.99,,,-99.99,,2013-04-11 21:53:00,
2013-04-11 15:02:00,66.0,34.0,-100.00,SW,228,6.0,11.0,31,-99.99,,,-99.99,,2013-04-11 22:02:00,
2013-04-11 15:13:00,67.0,35.0,-100.00,SW,217,6.0,10.0,30,-99.99,,,-99.99,,2013-04-11 22:13:00,
2013-04-11 15:22:00,67.0,34.0,-100.00,SW,231,5.0,13.0,29,-99.99,,,-99.99,,2013-04-11 22:22:00,
2013-04-11 15:32:00,67.0,33.0,-100.00,West,260,6.0,13.0,28,-99.99,,,-99.99,,2013-04-11 22:32:00,
2013-04-11 15:43:00,68.0,33.0,-100.00,SSW,204,7.0,13.0,27,-99.99,,,-99.99,,2013-04-11 22:43:00,
2013-04-11 15:52:00,67.0,35.0,-100.00,SW,227,7.0,14.0,31,-99.99,,,-99.99,,2013-04-11 22:52:00,
2013-04-11 16:02:00,66.0,36.0,-100.00,WSW,256,8.0,15.0,33,-99.99,,,-99.99,,2013-04-11 23:02:00,
2013-04-11 16:12:00,66.0,38.0,-100.00,West,259,7.0,13.0,35,-99.99,,,-99.99,,2013-04-11 23:12:00,
2013-04-11 16:22:00,65.0,38.0,-100.00,WSW,252,8.0,13.0,37,-99.99,,,-99.99,,2013-04-11 23:22:00,
2013-04-11 16:32:00,65.0,39.0,-100.00,WSW,255,6.0,12.0,39,-99.99,,,-99.99,,2013-04-11 23:32:00,
2013-04-11 16:42:00,64.0,39.0,-100.00,WSW,244,7.0,13.0,40,-99.99,,,-99.99,,2013-04-11 23:42:00,
2013-04-11 16:52:00,65.0,41.0,-100.00,WSW,242,6.0,12.0,41,-99.99,,,-99.99,,2013-04-11 23:52:00,
2013-04-11 17:02:00,63.0,41.0,-100.00,WSW,250,6.0,11.0,44,-99.99,,,-99.99,,2013-04-12 00:02:00,
2013-04-11 17:12:00,63.0,42.0,-100.00,WSW,252,5.0,9.0,46,-99.99,,,-99.99,,2013-04-12 00:12:00,
2013-04-11 17:21:00,63.0,40.0,-100.00,WSW,253,5.0,11.0,42,-99.99,,,-99.99,,2013-04-12 00:21:00,
2013-04-11 17:32:00,63.0,41.0,-100.00,West,261,5.0,10.0,44,-99.99,,,-99.99,,2013-04-12 00:32:00,
2013-04-11 17:42:00,63.0,41.0,-100.00,West,261,5.0,10.0,44,-99.99,,,-99.99,,2013-04-12 00:42:00,
2013-04-11 17:52:00,62.0,43.0,-100.00,West,272,5.0,8.0,50,-99.99,,,-99.99,,2013-04-12 00:52:00,
2013-04-11 18:02:00,62.0,44.0,-100.00,WSW,253,5.0,8.0,51,-99.99,,,-99.99,,2013-04-12 01:02:00,
2013-04-11 18:12:00,62.0,45.0,-100.00,West,265,4.0,8.0,53,-99.99,,,-99.99,,2013-04-12 01:12:00,
2013-04-11 18:22:00,61.0,42.0,-100.00,West,277,4.0,6.0,50,-99.99,,,-99.99,,2013-04-12 01:22:00,
2013-04-11 18:32:00,61.0,40.0,-100.00,West,275,4.0,6.0,46,-99.99,,,-99.99,,2013-04-12 01:32:00,
2013-04-11 18:42:00,61.0,39.0,-100.00,WNW,284,4.0,8.0,44,-99.99,,,-99.99,,2013-04-12 01:42:00,
2013-04-11 18:52:00,61.0,41.0,-100.00,West,265,3.0,5.0,47,-99.99,,,-99.99,,2013-04-12 01:52:00,
2013-04-11 19:02:00,61.0,44.0,-100.00,West,271,3.0,5.0,53,-99.99,,,-99.99,,2013-04-12 02:02:00,
2013-04-11 19:12:00,59.0,46.0,-100.00,NW,309,4.0,6.0,61,-99.99,,,-99.99,,2013-04-12 02:12:00,
2013-04-11 19:22:00,57.0,45.0,-100.00,NW,315,3.0,6.0,65,-99.99,,,-99.99,,2013-04-12 02:22:00,
2013-04-11 19:32:00,58.0,46.0,-100.00,SW,232,1.0,2.0,65,-99.99,,,-99.99,,2013-04-12 02:32:00,
2013-04-11 19:42:00,57.0,45.0,-100.00,WNW,287,2.0,8.0,65,-99.99,,,-99.99,,2013-04-12 02:42:00,
2013-04-11 19:52:00,54.0,45.0,-100.00,NW,304,3.0,7.0,72,-99.99,,,-99.99,,2013-04-12 02:52:00,
2013-04-11 20:01:00,53.0,45.0,-100.00,SSE,154,1.0,4.0,74,-99.99,,,-99.99,,2013-04-12 03:01:00,
2013-04-11 20:12:00,56.0,37.0,-100.00,SE,124,6.0,10.0,48,-99.99,,,-99.99,,2013-04-12 03:12:00,
2013-04-11 20:33:00,58.0,34.0,-100.00,SE,128,7.0,9.0,40,-99.99,,,-99.99,,2013-04-12 03:33:00,
2013-04-11 20:43:00,57.0,35.0,-100.00,ESE,121,7.0,9.0,44,-99.99,,,-99.99,,2013-04-12 03:43:00,
2013-04-11 20:52:00,57.0,35.0,-100.00,SE,126,7.0,10.0,44,-99.99,,,-99.99,,2013-04-12 03:52:00,
2013-04-11 21:02:00,57.0,35.0,-100.00,SE,126,7.0,10.0,44,-99.99,,,-99.99,,2013-04-12 04:02:00,
2013-04-11 21:13:00,58.0,33.0,-100.00,ESE,122,7.0,9.0,39,-99.99,,,-99.99,,2013-04-12 04:13:00,
2013-04-11 21:22:00,58.0,34.0,-100.00,SE,130,6.0,9.0,40,-99.99,,,-99.99,,2013-04-12 04:22:00,
2013-04-11 21:33:00,57.0,34.0,-100.00,SE,134,6.0,8.0,41,-99.99,,,-99.99,,2013-04-12 04:33:00,
2013-04-11 21:43:00,56.0,34.0,-100.00,ESE,122,8.0,11.0,43,-99.99,,,-99.99,,2013-04-12 04:43:00,
2013-04-11 21:52:00,57.0,34.0,-100.00,SE,125,8.0,12.0,42,-99.99,,,-99.99,,2013-04-12 04:52:00,
2013-04-11 22:02:00,57.0,34.0,-100.00,SE,125,9.0,11.0,42,-99.99,,,-99.99,,2013-04-12 05:02:00,
2013-04-11 22:11:00,57.0,34.0,-100.00,SE,132,7.0,11.0,41,-99.99,,,-99.99,,2013-04-12 05:11:00,
2013-04-11 22:22:00,57.0,33.0,-100.00,ESE,120,10.0,13.0,40,-99.99,,,-99.99,,2013-04-12 05:22:00,
2013-04-11 22:32:00,57.0,32.0,-100.00,ESE,112,10.0,12.0,39,-99.99,,,-99.99,,2013-04-12 05:32:00,
2013-04-11 22:42:00,57.0,31.0,-100.00,ESE,115,7.0,10.0,37,-99.99,,,-99.99,,2013-04-12 05:42:00,
2013-04-11 23:02:00,57.0,29.0,-100.00,ESE,114,8.0,11.0,34,-99.99,,,-99.99,,2013-04-12 06:02:00,
2013-04-11 23:12:00,57.0,28.0,-100.00,ESE,110,9.0,12.0,33,-99.99,,,-99.99,,2013-04-12 06:12:00,
2013-04-11 23:32:00,57.0,25.0,-100.00,ESE,123,5.0,8.0,29,-99.99,,,-99.99,,2013-04-12 06:32:00,
2013-04-11 23:42:00,57.0,25.0,-100.00,ESE,119,5.0,7.0,29,-99.99,,,-99.99,,2013-04-12 06:42:00,
2013-04-11 23:52:00,55.0,25.0,-100.00,ESE,106,5.0,6.0,31,-99.99,,,-99.99,,2013-04-12 06:52:00,